Regional Weather Roundup
Issued by NWS

Home | Current Version | Previous Version | Text Only | Print | Product List | Glossary Off
Versions: 1 2 3 4 5 6 7 8 9 10 11 12 13 14 15 16 17 18 19 20 21 22 23 24 25 26 27 28 29 30 31 32 33 34 35 36 37 38 39 40 41 42 43 44 45 46 47 48 49 50

000
ASUS43 KBIS 031510
RWRND

NORTH DAKOTA REGIONAL WEATHER ROUNDUP
NATIONAL WEATHER SERVICE BISMARCK ND
900 AM CST SAT DEC 03 2016

NOTE: "FAIR" INDICATES FEW OR NO CLOUDS BELOW 12,000 FEET WITH NO
SIGNIFICANT WEATHER AND/OR OBSTRUCTIONS TO VISIBILITY.


NDZ001>003-009>011-017-031600-
NORTHWEST NORTH DAKOTA

CITY           SKY/WX    TMP DP  RH WIND       PRES   REMARKS
WILLISTON      CLOUDY    18  15  88 S5        29.83F WCI  11
MINOT          CLEAR     24  20  84 SE12      29.89F WCI  13
MINOT AFB      CLEAR     22  19  87 S7        29.88F WCI  13
$$

NDZ018>021-031>035-040>046-031600-
SOUTHWEST NORTH DAKOTA

CITY           SKY/WX    TMP DP  RH WIND       PRES   REMARKS
BISMARCK       CLOUDY    24  24 100 SE13      29.99F FOG     WCI  12
DICKINSON      CLEAR     15  12  88 S13       29.85F WCI   1
GARRISON         N/A     24  22  91 SE14      29.92F WCI  12
HETTINGER ARPT CLEAR     14  12  92 CALM      29.90F
$$

NDZ004>008-012>016-024-026-027-054-031600-
NORTHEAST NORTH DAKOTA

CITY           SKY/WX    TMP DP  RH WIND       PRES   REMARKS
GRAND FORKS    CLOUDY    28  21  75 S12       30.16F WCI  18
GRND FRKS AFB  CLOUDY    27  22  81 S13       30.14F WCI  16
DEVILS LAKE    FLURRIES  26  25  96 S20       30.05S WCI  12
$$

NDZ022-023-025-028>030-036>039-047>053-031600-
SOUTHEAST NORTH DAKOTA

CITY           SKY/WX    TMP DP  RH WIND       PRES   REMARKS
FARGO          CLOUDY    28  20  71 S12       30.20F WCI  18
JAMESTOWN      CLOUDY    28  26  92 S16G24    30.07F WCI  16
$$




USA.gov is the U.S. government's official web portal to all federal, state and local government web resources and services.